Time,TemperatureF,DewpointF,PressureIn,WindDirection,WindDirectionDegrees,WindSpeedMPH,WindSpeedGustMPH,Humidity,HourlyPrecipIn,Conditions,Clouds,dailyrainin,SoftwareType,DateUTC
2015-03-03 00:03:00,25.4,-99.9,-100.00,North,0,8.0,11.5,0,0.00,RA,,0.00,WeatherDisplay:10.37,2015-03-03 08:03:00,
2015-03-03 00:08:00,25.3,-99.9,-100.00,North,0,5.4,8.1,0,0.00,RA,,0.00,WeatherDisplay:10.37,2015-03-03 08:08:00,
2015-03-03 00:13:00,25.2,-99.9,-100.00,North,0,5.8,8.1,0,0.00,CLR,,0.00,WeatherDisplay:10.37,2015-03-03 08:13:00,
2015-03-03 00:18:00,25.1,-99.9,-100.00,North,0,5.8,9.0,0,0.00,CLR,,0.00,WeatherDisplay:10.37,2015-03-03 08:18:00,
2015-03-03 00:23:00,25.2,-99.9,-100.00,North,0,4.7,5.8,0,0.00,CLR,,0.00,WeatherDisplay:10.37,2015-03-03 08:23:00,
2015-03-03 00:28:00,25.3,-99.9,-100.00,North,0,3.2,3.5,0,0.00,CLR,,0.00,WeatherDisplay:10.37,2015-03-03 08:28:00,
2015-03-03 00:33:00,25.5,-99.9,-100.00,North,0,3.9,5.8,0,0.00,CLR,,0.00,WeatherDisplay:10.37,2015-03-03 08:33:00,
2015-03-03 00:38:00,25.8,-99.9,-100.00,North,0,4.8,9.2,0,0.00,CLR,,0.00,WeatherDisplay:10.37,2015-03-03 08:38:00,
2015-03-03 00:43:00,25.9,-99.9,-100.00,North,0,3.3,7.0,0,0.00,CLR,,0.00,WeatherDisplay:10.37,2015-03-03 08:43:00,
2015-03-03 00:48:00,25.8,-99.9,-100.00,North,0,5.6,11.5,0,0.00,CLR,,0.00,WeatherDisplay:10.37,2015-03-03 08:48:00,
2015-03-03 00:53:00,25.7,-99.9,-100.00,North,0,4.6,6.9,0,0.00,CLR,,0.00,WeatherDisplay:10.37,2015-03-03 08:53:00,
2015-03-03 00:58:00,25.8,-99.9,-100.00,North,0,7.6,10.4,0,0.00,CLR,,0.00,WeatherDisplay:10.37,2015-03-03 08:58:00,
2015-03-03 01:03:00,25.8,-99.9,-100.00,North,0,4.0,6.0,0,0.00,CLR,,0.00,WeatherDisplay:10.37,2015-03-03 09:03:00,
2015-03-03 01:08:00,25.7,-99.9,-100.00,North,0,4.6,6.9,0,0.00,CLR,,0.00,WeatherDisplay:10.37,2015-03-03 09:08:00,
2015-03-03 01:13:00,25.8,-99.9,-100.00,North,0,3.8,5.8,0,0.00,CLR,,0.00,WeatherDisplay:10.37,2015-03-03 09:13:00,
2015-03-03 01:18:00,25.7,-99.9,-100.00,North,0,8.3,11.5,0,0.00,CLR,,0.00,WeatherDisplay:10.37,2015-03-03 09:18:00,
2015-03-03 01:23:00,25.7,-99.9,-100.00,North,0,6.6,10.4,0,0.00,CLR,,0.00,WeatherDisplay:10.37,2015-03-03 09:23:00,
2015-03-03 01:28:00,25.6,-99.9,-100.00,North,0,5.0,8.1,0,0.00,CLR,,0.00,WeatherDisplay:10.37,2015-03-03 09:28:00,
2015-03-03 01:33:00,25.5,-99.9,-100.00,North,0,4.9,9.2,0,0.00,CLR,,0.00,WeatherDisplay:10.37,2015-03-03 09:33:00,
2015-03-03 01:38:00,25.4,-99.9,-100.00,North,0,3.8,5.8,0,0.00,CLR,,0.00,WeatherDisplay:10.37,2015-03-03 09:38:00,
2015-03-03 01:43:00,25.1,-99.9,-100.00,North,0,5.7,8.1,0,0.00,CLR,,0.00,WeatherDisplay:10.37,2015-03-03 09:43:00,
2015-03-03 01:48:00,24.8,-99.9,-100.00,North,0,7.9,11.0,0,0.00,CLR,,0.00,WeatherDisplay:10.37,2015-03-03 09:48:00,
2015-03-03 01:53:00,24.7,-99.9,-100.00,North,0,8.3,12.7,0,0.00,CLR,,0.00,WeatherDisplay:10.37,2015-03-03 09:53:00,
2015-03-03 01:58:00,24.5,-99.9,-100.00,North,0,8.3,13.0,0,0.00,CLR,,0.00,WeatherDisplay:10.37,2015-03-03 09:58:00,
2015-03-03 02:03:00,24.2,-99.9,-100.00,North,0,6.9,9.2,0,0.00,CLR,,0.00,WeatherDisplay:10.37,2015-03-03 10:03:00,
2015-03-03 02:08:00,23.9,-99.9,-100.00,North,0,6.0,11.5,0,0.00,CLR,,0.00,WeatherDisplay:10.37,2015-03-03 10:08:00,
2015-03-03 02:13:00,24.1,-99.9,-100.00,North,0,6.2,9.2,0,0.00,CLR,,0.00,WeatherDisplay:10.37,2015-03-03 10:13:00,
2015-03-03 02:18:00,23.8,-99.9,-100.00,North,0,5.2,11.5,0,0.00,CLR,,0.00,WeatherDisplay:10.37,2015-03-03 10:18:00,
2015-03-03 02:23:00,23.5,-99.9,-100.00,North,0,4.7,13.0,0,0.00,CLR,,0.00,WeatherDisplay:10.37,2015-03-03 10:23:00,
2015-03-03 02:28:00,23.3,-99.9,-100.00,North,0,4.2,6.9,0,0.00,CLR,,0.00,WeatherDisplay:10.37,2015-03-03 10:28:00,
2015-03-03 02:33:00,23.0,-99.9,-100.00,North,0,5.0,8.1,0,0.00,CLR,,0.00,WeatherDisplay:10.37,2015-03-03 10:33:00,
2015-03-03 02:38:00,23.0,-99.9,-100.00,North,0,5.7,9.2,0,0.00,CLR,,0.00,WeatherDisplay:10.37,2015-03-03 10:38:00,
2015-03-03 02:43:00,23.0,-99.9,-100.00,North,0,4.9,9.2,0,0.00,CLR,,0.00,WeatherDisplay:10.37,2015-03-03 10:43:00,
2015-03-03 02:48:00,22.7,-99.9,-100.00,North,0,3.8,5.8,0,0.00,CLR,,0.00,WeatherDisplay:10.37,2015-03-03 10:48:00,
2015-03-03 02:53:00,22.5,-99.9,-100.00,North,0,2.8,5.0,0,0.00,CLR,,0.00,WeatherDisplay:10.37,2015-03-03 10:53:00,
2015-03-03 02:58:00,22.4,-99.9,-100.00,North,0,1.5,3.5,0,0.00,CLR,,0.00,WeatherDisplay:10.37,2015-03-03 10:58:00,
2015-03-03 03:03:00,22.1,-99.9,-100.00,North,0,3.1,4.0,0,0.00,CLR,,0.00,WeatherDisplay:10.37,2015-03-03 11:03:00,
2015-03-03 03:08:00,21.8,-99.9,-100.00,North,0,1.5,3.5,0,0.00,CLR,,0.00,WeatherDisplay:10.37,2015-03-03 11:08:00,
2015-03-03 03:13:00,21.5,-99.9,-100.00,North,0,3.0,5.8,0,0.00,CLR,,0.00,WeatherDisplay:10.37,2015-03-03 11:13:00,
2015-03-03 03:18:00,21.2,-99.9,-100.00,North,0,2.0,3.5,0,0.00,CLR,,0.00,WeatherDisplay:10.37,2015-03-03 11:18:00,
2015-03-03 03:23:00,21.0,-99.9,-100.00,North,0,3.3,5.0,0,0.00,CLR,,0.00,WeatherDisplay:10.37,2015-03-03 11:23:00,
2015-03-03 03:28:00,20.7,-99.9,-100.00,North,0,3.1,4.6,0,0.00,CLR,,0.00,WeatherDisplay:10.37,2015-03-03 11:28:00,
2015-03-03 03:33:00,20.6,-99.9,-100.00,North,0,1.4,2.3,0,0.00,CLR,,0.00,WeatherDisplay:10.37,2015-03-03 11:33:00,
2015-03-03 03:38:00,20.5,-99.9,-100.00,North,0,1.4,3.5,0,0.00,CLR,,0.00,WeatherDisplay:10.37,2015-03-03 11:38:00,
2015-03-03 03:43:00,20.4,-99.9,-100.00,North,0,2.2,5.8,0,0.00,CLR,,0.00,WeatherDisplay:10.37,2015-03-03 11:43:00,
2015-03-03 03:48:00,20.1,-99.9,-100.00,North,0,2.8,3.5,0,0.00,CLR,,0.00,WeatherDisplay:10.37,2015-03-03 11:48:00,
2015-03-03 03:53:00,20.0,-99.9,-100.00,North,0,3.1,5.0,0,0.00,CLR,,0.00,WeatherDisplay:10.37,2015-03-03 11:53:00,
2015-03-03 03:58:00,19.8,-99.9,-100.00,North,0,1.5,3.5,0,0.00,CLR,,0.00,WeatherDisplay:10.37,2015-03-03 11:58:00,
2015-03-03 04:03:00,19.6,-99.9,-100.00,North,0,1.0,2.3,0,0.00,CLR,,0.00,WeatherDisplay:10.37,2015-03-03 12:03:00,
2015-03-03 04:08:00,19.3,-99.9,-100.00,North,0,3.0,4.6,0,0.00,CLR,,0.00,WeatherDisplay:10.37,2015-03-03 12:08:00,
2015-03-03 04:13:00,19.1,-99.9,-100.00,North,0,1.8,3.5,0,0.00,CLR,,0.00,WeatherDisplay:10.37,2015-03-03 12:13:00,
2015-03-03 04:18:00,18.9,-99.9,-100.00,North,0,0.2,1.2,0,0.00,CLR,,0.00,WeatherDisplay:10.37,2015-03-03 12:18:00,
2015-03-03 04:23:00,18.7,-99.9,-100.00,North,0,2.5,3.5,0,0.00,CLR,,0.00,WeatherDisplay:10.37,2015-03-03 12:23:00,
2015-03-03 04:28:00,18.2,-99.9,-100.00,North,0,3.3,4.6,0,0.00,CLR,,0.00,WeatherDisplay:10.37,2015-03-03 12:28:00,
2015-03-03 04:33:00,17.8,-99.9,-100.00,North,0,2.2,3.5,0,0.00,CLR,,0.00,WeatherDisplay:10.37,2015-03-03 12:33:00,
2015-03-03 04:38:00,17.6,-99.9,-100.00,North,0,2.0,3.5,0,0.00,CLR,,0.00,WeatherDisplay:10.37,2015-03-03 12:38:00,
2015-03-03 04:43:00,17.4,-99.9,-100.00,North,0,2.1,5.0,0,0.00,CLR,,0.00,WeatherDisplay:10.37,2015-03-03 12:43:00,
2015-03-03 04:48:00,17.2,-99.9,-100.00,North,0,2.7,3.5,0,0.00,CLR,,0.00,WeatherDisplay:10.37,2015-03-03 12:48:00,
2015-03-03 04:53:00,17.2,-99.9,-100.00,North,0,2.7,3.5,0,0.00,CLR,,0.00,WeatherDisplay:10.37,2015-03-03 12:53:00,
2015-03-03 04:58:00,17.2,-99.9,-100.00,North,0,2.1,3.5,0,0.00,CLR,,0.00,WeatherDisplay:10.37,2015-03-03 12:58:00,
2015-03-03 05:03:00,17.4,-99.9,-100.00,North,0,3.8,6.9,0,0.00,CLR,,0.00,WeatherDisplay:10.37,2015-03-03 13:03:00,
2015-03-03 05:08:00,17.7,-99.9,-100.00,North,0,4.1,8.1,0,0.00,CLR,,0.00,WeatherDisplay:10.37,2015-03-03 13:08:00,
2015-03-03 05:13:00,17.8,-99.9,-100.00,North,0,2.7,3.5,0,0.00,CLR,,0.00,WeatherDisplay:10.37,2015-03-03 13:13:00,
2015-03-03 05:18:00,17.7,-99.9,-100.00,North,0,4.4,7.0,0,0.00,CLR,,0.00,WeatherDisplay:10.37,2015-03-03 13:18:00,
2015-03-03 05:23:00,18.1,-99.9,-100.00,North,0,5.5,9.2,0,0.00,CLR,,0.00,WeatherDisplay:10.37,2015-03-03 13:23:00,
2015-03-03 05:28:00,18.4,-99.9,-100.00,NW,326,4.9,6.9,0,0.00,CLR,,0.00,WeatherDisplay:10.37,2015-03-03 13:28:00,
2015-03-03 05:33:00,18.4,-99.9,-100.00,NNW,331,3.4,5.8,0,0.00,CLR,,0.00,WeatherDisplay:10.37,2015-03-03 13:33:00,
2015-03-03 05:38:00,18.3,-99.9,-100.00,NW,326,3.5,6.9,0,0.00,CLR,,0.00,WeatherDisplay:10.37,2015-03-03 13:38:00,
2015-03-03 05:43:00,18.2,-99.9,-100.00,NNW,331,0.7,2.3,0,0.00,CLR,,0.00,WeatherDisplay:10.37,2015-03-03 13:43:00,
2015-03-03 05:48:00,17.8,-99.9,-100.00,NNW,330,1.2,2.3,0,0.00,CLR,,0.00,WeatherDisplay:10.37,2015-03-03 13:48:00,
2015-03-03 05:53:00,17.5,-99.9,-100.00,NNW,330,0.9,2.3,0,0.00,CLR,,0.00,WeatherDisplay:10.37,2015-03-03 13:53:00,
2015-03-03 05:58:00,17.3,-99.9,-100.00,NW,326,1.2,2.3,0,0.00,CLR,,0.00,WeatherDisplay:10.37,2015-03-03 13:58:00,
2015-03-03 06:03:00,17.1,-99.9,-100.00,NW,324,0.8,2.3,0,0.00,CLR,,0.00,WeatherDisplay:10.37,2015-03-03 14:03:00,
2015-03-03 06:08:00,16.8,-99.9,-100.00,NW,322,0.4,1.2,0,0.00,CLR,,0.00,WeatherDisplay:10.37,2015-03-03 14:08:00,
2015-03-03 06:13:00,16.6,-99.9,-100.00,NW,322,1.4,3.5,0,0.00,CLR,,0.00,WeatherDisplay:10.37,2015-03-03 14:13:00,
2015-03-03 06:18:00,16.7,-99.9,-100.00,NW,322,2.5,3.5,0,0.00,CLR,,0.00,WeatherDisplay:10.37,2015-03-03 14:18:00,
2015-03-03 06:23:00,16.7,-99.9,-100.00,NW,319,1.0,2.3,0,0.00,CLR,,0.00,WeatherDisplay:10.37,2015-03-03 14:23:00,
2015-03-03 06:28:00,16.6,-99.9,-100.00,NNW,328,2.0,3.5,0,0.00,CLR,,0.00,WeatherDisplay:10.37,2015-03-03 14:28:00,
2015-03-03 06:33:00,16.5,-99.9,-100.00,NNW,328,1.4,2.3,0,0.00,CLR,,0.00,WeatherDisplay:10.37,2015-03-03 14:33:00,
2015-03-03 06:38:00,16.5,-99.9,-100.00,NNW,327,1.9,3.5,0,0.00,CLR,,0.00,WeatherDisplay:10.37,2015-03-03 14:38:00,
2015-03-03 06:43:00,16.3,-99.9,-100.00,NW,326,2.4,3.5,0,0.00,CLR,,0.00,WeatherDisplay:10.37,2015-03-03 14:43:00,
2015-03-03 06:48:00,15.8,-99.9,-100.00,NNW,328,0.9,2.3,0,0.00,CLR,,0.00,WeatherDisplay:10.37,2015-03-03 14:48:00,
2015-03-03 06:53:00,15.5,-99.9,-100.00,NNW,328,2.6,3.5,0,0.00,CLR,,0.00,WeatherDisplay:10.37,2015-03-03 14:53:00,
2015-03-03 06:58:00,15.4,-99.9,-100.00,NW,324,1.3,2.3,0,0.00,CLR,,0.00,WeatherDisplay:10.37,2015-03-03 14:58:00,
2015-03-03 07:03:00,15.4,-99.9,-100.00,North,0,1.2,2.3,0,0.00,CLR,,0.00,WeatherDisplay:10.37,2015-03-03 15:03:00,
2015-03-03 07:08:00,15.5,-99.9,-100.00,North,0,2.0,2.3,0,0.00,CLR,,0.00,WeatherDisplay:10.37,2015-03-03 15:08:00,
2015-03-03 07:13:00,15.8,-99.9,-100.00,North,0,0.2,1.2,0,0.00,CLR,,0.00,WeatherDisplay:10.37,2015-03-03 15:13:00,
2015-03-03 07:18:00,16.3,-99.9,-100.00,North,0,1.5,2.3,0,0.00,CLR,,0.00,WeatherDisplay:10.37,2015-03-03 15:18:00,
2015-03-03 07:23:00,17.1,-99.9,-100.00,North,0,0.6,1.2,0,0.00,CLR,,0.00,WeatherDisplay:10.37,2015-03-03 15:23:00,
2015-03-03 07:28:00,17.8,-99.9,-100.00,North,0,1.2,2.3,0,0.00,CLR,,0.00,WeatherDisplay:10.37,2015-03-03 15:28:00,
2015-03-03 07:33:00,18.7,-99.9,-100.00,North,0,2.5,3.5,0,0.00,CLR,,0.00,WeatherDisplay:10.37,2015-03-03 15:33:00,
2015-03-03 07:38:00,19.4,-99.9,-100.00,North,0,1.4,2.3,0,0.00,CLR,,0.00,WeatherDisplay:10.37,2015-03-03 15:38:00,
2015-03-03 07:43:00,20.2,-99.9,-100.00,North,0,2.2,4.0,0,0.00,CLR,,0.00,WeatherDisplay:10.37,2015-03-03 15:43:00,
2015-03-03 07:48:00,21.0,-99.9,-100.00,North,0,1.8,3.5,0,0.00,CLR,,0.00,WeatherDisplay:10.37,2015-03-03 15:48:00,
2015-03-03 07:53:00,21.6,-99.9,-100.00,North,0,2.4,4.6,0,0.00,CLR,,0.00,WeatherDisplay:10.37,2015-03-03 15:53:00,
2015-03-03 07:58:00,22.1,-99.9,-100.00,North,0,1.4,2.3,0,0.00,CLR,,0.00,WeatherDisplay:10.37,2015-03-03 15:58:00,
2015-03-03 08:03:00,22.9,-99.9,-100.00,North,0,1.0,2.3,0,0.00,CLR,,0.00,WeatherDisplay:10.37,2015-03-03 16:03:00,
2015-03-03 08:08:00,23.6,-99.9,-100.00,North,0,1.8,3.5,0,0.00,CLR,,0.00,WeatherDisplay:10.37,2015-03-03 16:08:00,
2015-03-03 08:13:00,24.7,-99.9,-100.00,North,0,2.4,3.5,0,0.00,CLR,,0.00,WeatherDisplay:10.37,2015-03-03 16:13:00,
2015-03-03 08:18:00,25.0,-99.9,-100.00,North,0,1.7,3.5,0,0.00,CLR,,0.00,WeatherDisplay:10.37,2015-03-03 16:18:00,
2015-03-03 08:23:00,26.0,-99.9,-100.00,North,0,2.2,3.5,0,0.00,CLR,,0.00,WeatherDisplay:10.37,2015-03-03 16:23:00,
2015-03-03 08:28:00,27.4,-99.9,-100.00,North,0,2.1,3.5,0,0.00,CLR,,0.00,WeatherDisplay:10.37,2015-03-03 16:28:00,
2015-03-03 08:33:00,27.7,-99.9,-100.00,North,0,3.0,6.0,0,0.00,CLR,,0.00,WeatherDisplay:10.37,2015-03-03 16:33:00,
2015-03-03 08:38:00,27.8,-99.9,-100.00,North,0,3.6,4.6,0,0.00,CLR,,0.00,WeatherDisplay:10.37,2015-03-03 16:38:00,
2015-03-03 08:43:00,27.6,-99.9,-100.00,North,0,2.8,4.0,0,0.00,CLR,,0.00,WeatherDisplay:10.37,2015-03-03 16:43:00,
2015-03-03 08:48:00,27.4,-99.9,-100.00,North,0,6.2,10.4,0,0.00,CLR,,0.00,WeatherDisplay:10.37,2015-03-03 16:48:00,
2015-03-03 08:53:00,26.9,-99.9,-100.00,North,0,3.8,5.8,0,0.00,CLR,,0.00,WeatherDisplay:10.37,2015-03-03 16:53:00,
2015-03-03 08:58:00,28.4,-99.9,-100.00,North,0,3.9,6.9,0,0.00,CLR,,0.00,WeatherDisplay:10.37,2015-03-03 16:58:00,
2015-03-03 09:03:00,27.4,-99.9,-100.00,North,0,6.4,8.1,0,0.00,CLR,,0.00,WeatherDisplay:10.37,2015-03-03 17:03:00,
2015-03-03 09:08:00,27.2,-99.9,-100.00,North,0,2.3,4.0,0,0.00,CLR,,0.00,WeatherDisplay:10.37,2015-03-03 17:08:00,
2015-03-03 09:13:00,26.5,-99.9,-100.00,North,0,5.2,6.9,0,0.00,CLR,,0.00,WeatherDisplay:10.37,2015-03-03 17:13:00,
2015-03-03 09:18:00,26.0,-99.9,-100.00,North,0,4.3,6.9,0,0.00,CLR,,0.00,WeatherDisplay:10.37,2015-03-03 17:18:00,
2015-03-03 09:23:00,25.7,-99.9,-100.00,North,0,3.4,5.8,0,0.00,CLR,,0.00,WeatherDisplay:10.37,2015-03-03 17:23:00,
2015-03-03 09:28:00,25.4,-99.9,-100.00,North,0,6.7,10.4,0,0.00,CLR,,0.00,WeatherDisplay:10.37,2015-03-03 17:28:00,
2015-03-03 09:33:00,25.5,-99.9,-100.00,North,0,5.1,9.2,0,0.00,CLR,,0.00,WeatherDisplay:10.37,2015-03-03 17:33:00,
2015-03-03 09:38:00,25.7,-99.9,-100.00,North,0,4.4,6.9,0,0.00,CLR,,0.00,WeatherDisplay:10.37,2015-03-03 17:38:00,
2015-03-03 09:43:00,26.0,-99.9,-100.00,North,0,4.5,9.2,0,0.00,CLR,,0.00,WeatherDisplay:10.37,2015-03-03 17:43:00,
2015-03-03 09:48:00,26.2,-99.9,-100.00,North,0,5.8,11.5,0,0.00,CLR,,0.00,WeatherDisplay:10.37,2015-03-03 17:48:00,
2015-03-03 09:53:00,26.2,-99.9,-100.00,North,0,5.0,8.1,0,0.00,CLR,,0.00,WeatherDisplay:10.37,2015-03-03 17:53:00,
2015-03-03 09:58:00,26.2,-99.9,-100.00,North,0,4.1,5.8,0,0.00,CLR,,0.00,WeatherDisplay:10.37,2015-03-03 17:58:00,
2015-03-03 10:03:00,26.5,-99.9,-100.00,North,0,4.6,6.9,0,0.00,CLR,,0.00,WeatherDisplay:10.37,2015-03-03 18:03:00,
2015-03-03 10:08:00,26.9,-99.9,-100.00,North,0,3.6,5.8,0,0.00,CLR,,0.00,WeatherDisplay:10.37,2015-03-03 18:08:00,
2015-03-03 10:13:00,27.4,-99.9,-100.00,North,0,3.3,4.6,0,0.00,CLR,,0.00,WeatherDisplay:10.37,2015-03-03 18:13:00,
2015-03-03 10:18:00,27.3,-99.9,-100.00,North,0,4.3,7.0,0,0.00,CLR,,0.00,WeatherDisplay:10.37,2015-03-03 18:18:00,
2015-03-03 10:23:00,27.4,-99.9,-100.00,North,0,2.9,5.8,0,0.00,CLR,,0.00,WeatherDisplay:10.37,2015-03-03 18:23:00,
2015-03-03 10:28:00,27.4,-99.9,-100.00,North,0,4.1,8.1,0,0.00,CLR,,0.00,WeatherDisplay:10.37,2015-03-03 18:28:00,
2015-03-03 10:33:00,27.4,-99.9,-100.00,North,0,5.1,9.2,0,0.00,CLR,,0.00,WeatherDisplay:10.37,2015-03-03 18:33:00,
2015-03-03 10:38:00,27.7,-99.9,-100.00,North,0,6.4,9.2,0,0.00,CLR,,0.00,WeatherDisplay:10.37,2015-03-03 18:38:00,
2015-03-03 10:43:00,27.8,-99.9,-100.00,North,0,3.6,6.9,0,0.00,CLR,,0.00,WeatherDisplay:10.37,2015-03-03 18:43:00,
2015-03-03 10:48:00,27.8,-99.9,-100.00,North,0,5.9,11.5,0,0.00,CLR,,0.00,WeatherDisplay:10.37,2015-03-03 18:48:00,
2015-03-03 10:53:00,28.2,-99.9,-100.00,North,0,3.0,4.6,0,0.00,CLR,,0.00,WeatherDisplay:10.37,2015-03-03 18:53:00,
2015-03-03 10:58:00,28.1,-99.9,-100.00,North,0,4.5,8.1,0,0.00,CLR,,0.00,WeatherDisplay:10.37,2015-03-03 18:58:00,
2015-03-03 11:03:00,28.2,-99.9,-100.00,North,0,3.5,5.8,0,0.00,CLR,,0.00,WeatherDisplay:10.37,2015-03-03 19:03:00,